Regional Weather Roundup
Issued by NWS

Home | Current Version | Previous Version | Graphics & Text | Print | Product List | Glossary On
Versions: 1 2 3 4 5 6 7 8 9 10 11 12 13 14 15 16 17 18 19 20 21 22 23 24 25 26 27 28 29 30 31 32 33 34 35 36 37 38 39 40 41 42 43 44 45 46 47 48 49 50
000
ASUS43 KDTX 272301
RWRMI
MICHIGAN HOURLY REGIONAL WEATHER ROUNDUP
NATIONAL WEATHER SERVICE DETROIT/PONTIAC MI
700 PM EDT FRI MAY 27 2016

NOTE: "FAIR" INDICATES FEW OR NO CLOUDS BELOW 12,000 FEET WITH NO
SIGNIFICANT WEATHER AND/OR OBSTRUCTION TO VISIBILITY.

MIZ047>049-052>055-059>063-066>070-074>076-081>083-280000-
SOUTHEAST LOWER MICHIGAN

CITY           SKY/WX    TMP DP  RH WIND       PRES   REMARKS
ADRIAN         CLOUDY    86  60  41 S6        29.93F
ALMA           CLOUDY    76  69  77 CALM      29.92S
ANN ARBOR      MOSUNNY   81  65  58 S3        29.94F
BAD AXE        CLOUDY    79  64  59 E6        29.95S
CARO           MOSUNNY   82  63  52 SW10      29.93R
DETROIT CITY   PTSUNNY   82  63  52 S8        29.95F
DETROIT        PTSUNNY   81  65  58 SE6       29.95F
FLINT          CLOUDY    85  63  47 S12       29.94S
GROSSE ILE     MOSUNNY   81  64  57 SE5       29.94F
HILLSDALE      CLOUDY    82  55  40 CALM      29.94F
HOWELL         PTSUNNY   81  61  50 S6        29.95S

CITY           SKY/WX    TMP DP  RH WIND       PRES   REMARKS
JACKSON        PTSUNNY   80  61  52 SE6       29.93F
LAMBERTVILLE   PTSUNNY   82  65  56 E6        29.94F
LANSING        CLOUDY    80  63  55 S9        29.93F
LAPEER         PTSUNNY   83  58  42 SW9       29.95S
MASON          CLOUDY    80  62  54 S3        29.94S
MONROE         MOSUNNY   78  66  66 SE5       29.93F
PONTIAC        CLOUDY    83  62  49 SW8       29.95F
PORT HOPE        N/A     63  60  90 SE9       29.94F
PORT HURON     MOSUNNY   81  59  47 S7        29.96R
TRI CITIES     CLOUDY    79  69  71 E3        29.93S
MIDLAND        FAIR      74  69  84 E3        29.91F
TROY           PTSUNNY   84  62  48 S6        29.96F
SAGINAW HB     CLOUDY    79  66  65 N8        29.93R
$$
MIZ043>046-050>051-056>058-064>065-071>073-077>080-280000-
SOUTHWEST LOWER MICHIGAN

CITY           SKY/WX    TMP DP  RH WIND       PRES   REMARKS
BATTLE CREEK   CLOUDY    81  63  54 SE9       29.91F
BENTON HARBOR  LGT RAIN  73  64  73 SW13G22   29.89R
BIG RAPIDS     CLOUDY    73  70  89 SE6       29.91S
COLDWATER      CLOUDY    81  62  52 S6        29.91F
FREMONT        FAIR      77  71  83 SE3       29.88F
HOLLAND        LGT RAIN  80  64  58 SE9       29.88F
GRAND RAPIDS   CLOUDY    81  64  56 SE9       29.90F
IONIA          FAIR      81  62  52 S10       29.91S
KALAMAZOO      CLOUDY    82  60  47 S6        29.89F
LUDINGTON      CLOUDY    76  67  74 S6        29.87F
MARSHALL       CLOUDY    81  64  56 SE3       29.91F
MOUNT PLEASANT CLOUDY    74  68  81 E3        29.91F
MUSKEGON       CLOUDY    80  64  58 SE8       29.87F
SOUTH HAVEN    LGT RAIN  78  68  72 SW20G29   29.89R
$$
MIZ016>042-280000-
NORTHERN LOWER MICHIGAN

CITY           SKY/WX    TMP DP  RH WIND       PRES   REMARKS
ALPENA         MOSUNNY   67  58  72 SE9       29.93S
BEAVER ISLAND  LGT RAIN  62  59  90 E6        29.91R
BELLAIRE       HVY RAIN  65  64  94 N5        29.93R
CADILLAC       PTSUNNY   71  65  81 S3        29.92S
CHARLEVOIX     LGT RAIN  67  64  92 SE3       29.95S
FRANKFORT      CLOUDY    68  63  84 CALM      29.89F
GAYLORD        CLOUDY    79  61  53 S10       29.93R
GRAYLING       CLOUDY    77  64  64 S8        29.93R
HARBOR SPRINGS LGT RAIN  67  65  94 CALM      29.93R
HOUGHTON LAKE  CLOUDY    74  65  73 S8        29.93S
MANISTEE       CLOUDY    77  64  65 SE3       29.87F
OSCODA         CLOUDY    68  59  72 SE3       29.94S
PELLSTON       LGT RAIN  73  62  68 W8        29.92R
ROGERS CITY    CLOUDY    65  57  75 E5        29.93S
TRAVERSE CITY  LGT RAIN  70  67  90 VRB3      29.89S
$$
MIZ007>008-015-280000-
EASTERN UPPER MICHIGAN

CITY           SKY/WX    TMP DP  RH WIND       PRES   REMARKS
KINROSS          N/A     73  59  60 E8        29.94S
MACKINAC ISLAN CLOUDY    55  53  92 E16G23    29.92S
NEWBERRY       CLOUDY    73  65  75 E3        29.91S
S. S. MARIE    MOSUNNY   75  61  61 SE7       29.93S
MUNISING         N/A     57  54  89 N3        29.88F
$$
MIZ004>006-011>014-085-280000-
CENTRAL UPPER MICHIGAN

CITY           SKY/WX    TMP DP  RH WIND       PRES   REMARKS
MANISTIQUE     CLOUDY    63  61  94 CALM      29.89F
ESCANABA       CLOUDY    64  63  94 SE6       29.88S
MENOMINEE      CLOUDY    62  61  96 SE9       29.87S FOG
SAWYER-GWINN   CLOUDY    66  61  82 SE7       29.90F
$$
MIZ001>003-009>011-084-280000-
WESTERN UPPER MICHIGAN

CITY           SKY/WX    TMP DP  RH WIND       PRES   REMARKS
IRON MOUNTAIN  PTSUNNY   68  63  84 E7        29.85S
HOUGHTON       CLOUDY    58  53  84 E8        29.87F
COPPER HARBOR    N/A     51  48  89 SE3       29.88F
IRONWOOD       PTSUNNY   61  61 100 NW5       29.83R
$$

ABBREVIATIONS USED IN REMARKS
   TC - TEMPERATURE IN CELSIUS
  WCI - WIND CHILL INDEX
   HX - HEAT INDEX
  VSB - VISIBILITY





USA.gov is the U.S. government's official web portal to all federal, state and local government web resources and services.